Location: Cranbrook Institute of Science
(42.5830°N, 83.2450°W)
Time: 21:04:48
(UTC-04:00)

Daily predictions for brighter satellites

Satellite Brightness Start Highest point End
(mag) Time Altitude Azimuth Time Altitude Azimuth Time Altitude Azimuth
SJ-11-01 4.3 21:28:43 10° SSE 21:33:20 68° ENE 21:38:00 10° N
Timation 1 Rocket 4.5 21:29:00 10° NNW 21:35:03 83° WSW 21:41:02 10° SSE
SL-16 R/B 3.4 21:31:49 10° SW 21:37:16 49° WNW 21:42:46 10° NNE
Lacrosse 4 Rocket 3.0 21:35:03 10° SE 21:37:20 15° ESE 21:39:39 10° ENE
Cosmos 2034 Rocket 4.1 21:31:09 10° N 21:37:34 76° E 21:43:52 10° SSE
CZ-2C R/B 0.6 21:35:58 10° S 21:38:15 71° W 21:40:32 10° NNW
SeaSat 1 3.3 21:39:12 10° ESE 21:43:44 38° NE 21:48:18 10° NNW
GRACE-1 4.2 21:45:20 10° NNE 21:48:08 48° E 21:50:54 10° SSE
GRACE-2 4.2 21:45:47 10° NNE 21:48:34 48° E 21:51:22 10° SSE
Nimbus 7 Rocket 4.5 21:44:23 10° NNE 21:50:17 59° ESE 21:56:05 10° S
CZ-4B R/B 4.3 21:50:52 10° NE 21:55:26 32° E 22:00:03 10° SSE
YAOGAN 6 4.0 21:54:35 12° SE 21:57:26 26° ENE 22:00:37 10° NNE
H-2A R/B 4.0 21:56:29 10° E 21:59:04 14° ENE 22:01:41 10° NNE
Atlas Centaur 2 3.7 21:53:24 10° SW 21:59:39 32° S 22:06:34 11° ESE
Cosmos 1461 4.3 21:56:39 10° NW 22:00:29 33° WSW 22:04:09 10° S
Cosmos 1515 4.0 21:59:21 10° SSE 22:03:04 48° E 22:06:48 10° NNE
BREEZE-M DEB (TANK) 2.1 22:01:39 10° SW 22:06:07 72° SSE 22:08:16 10° ENE
ATLAS 3B R/B 3.2 21:59:07 10° S 22:06:24 48° ESE 22:13:34 10° NE
Cosmos 1603 4.0 22:00:57 10° SSW 22:06:32 71° WNW 22:12:09 10° NNE
ISS -3.2 22:03:26 10° WSW 22:06:42 78° NNW 22:09:58 10° NE
SPOT 1/Viking Rocket 4.2 22:03:18 13° SE 22:07:35 41° ENE 22:12:24 10° N
ALOS 4.3 22:04:53 10° SSW 22:08:45 26° W 22:12:40 10° NW
MetOp-A 4.2 22:13:37 12° SSE 22:18:29 72° ENE 22:23:51 10° N
PSLV R/B 3.3 22:15:52 10° W 22:19:23 68° S 22:22:22 14° E
Cosmos 1939 Rocket 3.6 22:15:23 10° S 22:19:27 53° W 22:23:31 10° NNW
Lacrosse 5 rocket 4.4 22:19:58 10° NW 22:22:13 14° NNW 22:24:32 10° NNE
Cosmos 1953 4.3 22:20:06 10° NE 22:22:24 15° ENE 22:23:57 12° E
Cosmos 1943 Rocket 3.3 22:18:44 10° N 22:23:39 31° NE 22:27:31 15° ESE
ERS-1 Rocket 4.4 22:19:33 10° SSW 22:24:07 36° W 22:28:45 10° NNW
USA 234 3.6 22:19:11 12° ESE 22:25:09 63° NE 22:31:38 10° NW
BREEZE M DEB (TANK) 1.0 22:22:52 10° WNW 22:25:10 72° SSW 22:25:59 30° ESE
Cosmos 1758 Rocket 4.2 22:23:40 18° SSE 22:26:26 38° E 22:30:29 10° NNE
SPOT 5 2.8 22:23:00 12° S 22:27:06 70° WSW 22:31:25 10° NNW
Cosmos 1943 3.1 22:22:14 10° SSW 22:27:52 74° ESE 22:33:34 10° NNE
CZ-4 SHROUD 4.2 22:28:44 13° S 22:31:24 43° W 22:34:27 10° NNW
Terra 3.2 22:31:28 16° ESE 22:34:00 25° ENE 22:37:51 10° NNE
Envisat 3.7 22:31:40 10° S 22:36:36 52° W 22:41:35 10° NNW
Cosmos 1346 Rocket 2.7 22:34:25 18° S 22:37:11 62° E 22:41:05 10° NNE
COSMOS 2455 3.5 22:33:24 10° SW 22:39:19 59° NW 22:45:17 10° NNE
Cosmos 407 Rocket 3.5 22:35:12 10° S 22:40:24 64° ESE 22:45:34 10° NNE
Cosmos 1825 Rocket 3.6 22:38:28 10° S 22:42:55 81° W 22:47:23 10° N
SL-27 R/B 3.6 22:46:07 23° E 22:46:07 23° E 22:48:37 10° NE
Cosmos 1842 4.1 22:44:54 28° SE 22:46:02 33° E 22:49:35 10° NNE
USA 238 DEB 4.2 22:43:03 13° S 22:48:50 38° ESE 22:55:13 10° NE
USA 238 4.3 22:43:19 13° S 22:48:56 37° ESE 22:55:18 10° NE
Meteor 1-21 4.3 22:47:54 18° S 22:52:08 63° E 22:57:54 10° NNE
ARGOS 3.2 22:55:38 23° SSE 22:59:07 87° WSW 23:04:35 10° NNW
Cosmos 1954 Rocket 4.1 22:57:35 22° S 23:00:54 57° ESE 23:06:06 10° NNE
Cosmos 1900 4.4 22:57:24 10° SSW 23:02:34 89° NW 23:07:44 10° NNE
IGS 5A 4.1 23:05:31 32° ESE 23:06:46 41° ENE 23:10:42 10° N
Cosmos 1766 3.3 23:05:17 10° N 23:09:18 82° W 23:10:50 37° S
Cosmos 1758 3.8 23:05:55 10° N 23:09:55 47° ENE 23:10:56 38° ESE
Cosmos 2369 Rocket 2.9 23:05:08 10° NW 23:10:31 46° WSW 23:13:56 21° S
Nadezhda 4 Rocket 4.4 23:11:18 29° SE 23:14:10 48° E 23:20:12 10° NNE
Cosmos 2084 3.7 23:10:09 10° NNW 23:14:14 60° NE 23:15:41 38° ESE
Lacrosse 4 Rocket 2.3 23:11:42 10° SW 23:15:37 48° WNW 23:19:38 10° NNE
SL-8 R/B 4.3 23:12:16 10° WNW 23:17:03 56° NNE 23:20:18 20° E
SL-23 DEB 4.0 23:13:58 10° SW 23:20:01 81° SE 23:23:42 10° ENE
SeaSat 1 3.8 23:18:29 18° SSW 23:21:18 30° WSW 23:25:39 10° NW
SL-24 R/B 4.5 23:17:01 10° N 23:22:01 85° E 23:24:39 31° S
Cosmos 1741 Rocket 4.5 23:21:14 36° SE 23:22:30 42° ESE 23:27:30 10° NNE
SL-08 RB Rocket 4.3 23:25:26 28° SSW 23:27:30 50° W 23:31:54 10° NNW
Geosat 3.9 23:23:11 10° NNE 23:28:15 80° ESE 23:31:13 25° SSW
Spot 2 4.4 23:23:35 10° NNE 23:28:25 67° ESE 23:30:11 39° S
Cosmos 2221 4.2 23:30:45 10° NNE 23:33:54 19° ENE 23:34:25 19° E
Cosmos 1340 4.1 23:34:32 25° ENE 23:34:32 25° ENE 23:37:07 10° NE
Cosmos 1470 3.8 23:32:56 10° NNE 23:36:28 32° ENE 23:36:33 32° E
Cosmos-2242 3.2 23:32:33 10° NNW 23:36:57 66° W 23:38:15 43° SSW
H-2A R/B 2.0 23:36:00 40° S 23:37:47 77° WSW 23:42:54 10° NNW
Cosmos 1805 3.1 23:35:01 10° N 23:38:58 90° E 23:39:29 67° S
Cosmos 1850 Rocket 4.0 23:37:40 43° SSE 23:39:11 62° ESE 23:44:21 10° NNE
Cosmos 1570 Rocket 4.0 23:35:01 10° NNW 23:40:25 82° ENE 23:42:07 45° SSE
Cosmos 1023 Rocket 4.4 23:41:01 34° SSW 23:43:22 87° ESE 23:48:40 10° NNE
ISS -0.6 23:40:58 10° WNW 23:43:32 21° NNW 23:46:07 10° NE
CZ-4C R/B 3.2 23:45:27 27° E 23:45:27 27° E 23:49:41 10° NE
Cosmos 1544 3.4 23:42:16 10° N 23:45:56 55° ENE 23:45:56 55° ENE
Atlas Centaur 2 3.7 23:41:54 10° WSW 23:48:36 31° S 23:49:12 31° S
COSMOS 2406 3.1 23:45:47 31° SSW 23:48:39 86° ESE 23:54:26 10° NNE
Cosmos 1607 3.8 23:45:43 31° SSW 23:48:50 69° ESE 23:55:02 10° NE
SAR-Lupe-2 4.3 23:49:00 42° WSW 23:49:19 43° W 23:52:46 10° NNW
Cosmos 1140 Rocket 3.5 23:47:56 33° SSW 23:50:21 82° WNW 23:55:38 10° NNE
